Weather History for Erwin, NC

Change the Weather History Date:

Tuesday, August 6, 2013

  Actual Average Record
Temperature  
Mean Temperature 76 °F -  
Max Temperature 85 °F 88 °F 100 °F (2007)
Min Temperature 68 °F 68 °F 59 °F (1976)
Cooling Degree Days 12    
Growing Degree Days 26 (Base 50)    
Moisture  
Dew Point 64 °F    
Average Humidity 68    
Maximum Humidity 96    
Minimum Humidity 44    
Precipitation  
Precipitation 0.00 in - - ()
Sea Level Pressure  
Sea Level Pressure 30.06 in    
Wind  
Wind Speed 4 mph (South)    
Max Wind Speed 10 mph    
Max Gust Speed 16 mph    
Visibility 7 miles    
Events Rain    
Averages and records for this station are not official NWS values.
T = Trace of Precipitation, MM = Missing Value Source: NWS Daily Summary

Daily Weather History Graph

Daily Weather History Graph

Search for Another Location

Airport:

Trip Planner

Search our weather history database for the weather conditions in past years. The results will help you decide how hot, cold, wet, or windy it might be!

Date:

Astronomy

Aug. 06, 2013 Rise Set
Actual Time 6:27 AM EDT 8:13 PM EDT
Civil Twilight 6:00 AM EDT 8:40 PM EDT
Nautical Twilight 5:26 AM EDT 9:14 PM EDT
Astronomical Twilight 4:51 AM EDT 9:49 PM EDT
Moon 6:15 AM EDT (8/6) 7:50 PM EDT (8/6)
Length of Visible Light 14h 40m
Length of Day
13h 45m
Waning Crescent, 0% of the Moon is Illuminated
Aug 6
Waning Crescent
Aug 6
New
Aug 14
First Quarter
Aug 20
Full
Aug 28
Last Quarter

Hourly Weather History & Observations

Time (EDT) Temp. Heat Index Dew Point Humidity Pressure Visibility Wind Dir Wind Speed Gust Speed Precip Events Conditions
12:15 AM 73.0 °F - 63.7 °F 72% 30.05 in 0.8 mi South 4.6 mph - N/A   Haze
12:35 AM 72.5 °F - 63.7 °F 74% 30.05 in 0.5 mi SSE 4.6 mph - N/A   Haze
12:55 AM 72.1 °F - 63.3 °F 74% 30.05 in 1.5 mi SSE 5.8 mph - N/A   Haze
1:15 AM 71.6 °F - 63.5 °F 76% 30.05 in 0.8 mi South 4.6 mph - N/A   Haze
1:35 AM 70.9 °F - 63.5 °F 77% 30.04 in 0.5 mi South 4.6 mph - N/A   Haze
1:55 AM 70.7 °F - 63.0 °F 76% 30.04 in 0.8 mi SSE 3.5 mph - N/A   Haze
2:15 AM 70.2 °F - 63.1 °F 78% 30.03 in 0.8 mi South 3.5 mph - N/A   Haze
2:35 AM 70.2 °F - 63.0 °F 78% 30.03 in 0.5 mi SSE 3.5 mph - N/A   Haze
2:55 AM 70.2 °F - 62.8 °F 77% 30.03 in 0.5 mi Calm Calm - N/A   Haze
3:15 AM 69.8 °F - 62.6 °F 78% 30.02 in 1.0 mi SSE 3.5 mph - N/A   Haze
3:35 AM 69.8 °F - 62.6 °F 78% 30.02 in 1.2 mi Calm Calm - N/A   Haze
3:55 AM 70.0 °F - 62.6 °F 77% 30.01 in 0.8 mi Calm Calm - N/A   Haze
4:15 AM 69.6 °F - 63.1 °F 80% 30.02 in 10.0 mi Calm Calm - N/A   Clear
4:35 AM 69.1 °F - 63.1 °F 81% 30.02 in 7.0 mi Calm Calm - N/A   Clear
4:55 AM 70.0 °F - 62.8 °F 78% 30.02 in 0.5 mi Calm Calm - N/A   Haze
5:15 AM 69.8 °F - 63.7 °F 81% 30.02 in 1.0 mi Calm Calm - N/A   Haze
5:35 AM 69.1 °F - 65.1 °F 87% 30.03 in 10.0 mi Calm Calm - N/A   Scattered Clouds
5:55 AM 68.9 °F - 67.1 °F 94% 30.04 in 10.0 mi Calm Calm - N/A   Mostly Cloudy
6:15 AM 68.9 °F - 66.2 °F 91% 30.05 in 4.0 mi Calm Calm - N/A   Overcast
6:35 AM 69.3 °F - 66.7 °F 92% 30.05 in 10.0 mi Calm Calm - N/A Rain Light Rain
6:55 AM 68.9 °F - 67.8 °F 96% 30.05 in 10.0 mi Calm Calm - N/A   Overcast
7:15 AM 68.9 °F - 66.7 °F 93% 30.05 in 10.0 mi North 3.5 mph - N/A   Overcast
7:35 AM 69.1 °F - 67.5 °F 95% 30.05 in 10.0 mi Calm Calm - N/A   Mostly Cloudy
7:55 AM 69.8 °F - 67.3 °F 92% 30.06 in 10.0 mi Calm Calm - N/A   Scattered Clouds
8:15 AM 70.9 °F - 67.1 °F 88% 30.06 in 10.0 mi East 3.5 mph - N/A   Clear
8:35 AM 71.1 °F - 66.9 °F 87% 30.07 in 10.0 mi Calm Calm - N/A   Scattered Clouds
8:55 AM 72.5 °F - 66.4 °F 81% 30.06 in 10.0 mi Calm Calm - N/A   Scattered Clouds
9:15 AM 73.4 °F - 65.1 °F 75% 30.07 in 10.0 mi Calm Calm - N/A   Scattered Clouds
9:35 AM 73.4 °F - 64.9 °F 75% 30.06 in 10.0 mi Calm Calm - N/A   Clear
9:55 AM 75.0 °F - 63.5 °F 67% 30.07 in 10.0 mi Calm Calm - N/A   Clear
10:15 AM 77.2 °F - 63.7 °F 63% 30.07 in 10.0 mi Calm Calm - N/A   Clear
10:35 AM 78.4 °F - 63.9 °F 61% 30.07 in 10.0 mi SSE 4.6 mph - N/A   Scattered Clouds
10:55 AM 79.3 °F - 61.9 °F 55% 30.08 in 10.0 mi South 6.9 mph - N/A   Scattered Clouds
11:15 AM 80.4 °F 81.5 °F 62.1 °F 53% 30.08 in 10.0 mi SSW 8.1 mph - N/A   Scattered Clouds
11:35 AM 81.3 °F 82.6 °F 63.1 °F 54% 30.08 in 10.0 mi South 10.4 mph - N/A   Scattered Clouds
11:55 AM 82.0 °F 82.7 °F 61.3 °F 49% 30.07 in 10.0 mi SSW 9.2 mph - N/A   Scattered Clouds
12:15 PM 81.9 °F 82.8 °F 61.9 °F 51% 30.08 in 10.0 mi South 8.1 mph - N/A   Clear
12:35 PM 81.5 °F 82.7 °F 62.8 °F 53% 30.08 in 10.0 mi South 9.2 mph - N/A   Clear
12:55 PM 81.3 °F 82.6 °F 63.1 °F 54% 30.08 in 10.0 mi SW 5.8 mph - N/A   Scattered Clouds
1:15 PM 83.7 °F 83.9 °F 61.2 °F 46% 30.07 in 10.0 mi SSW 9.2 mph - N/A   Scattered Clouds
1:35 PM 83.5 °F 83.9 °F 61.5 °F 47% 30.07 in 10.0 mi SSW 6.9 mph - N/A   Clear
1:55 PM 83.3 °F 83.9 °F 61.9 °F 48% 30.07 in 10.0 mi SW 5.8 mph - N/A   Clear
2:15 PM 83.8 °F 84.0 °F 60.4 °F 45% 30.06 in 10.0 mi South 9.2 mph - N/A   Scattered Clouds
2:35 PM 83.8 °F 84.1 °F 61.2 °F 46% 30.06 in 10.0 mi South 8.1 mph - N/A   Mostly Cloudy
2:55 PM 84.0 °F 84.4 °F 61.0 °F 46% 30.06 in 10.0 mi South 9.2 mph - N/A   Overcast
3:15 PM 84.2 °F 84.8 °F 61.7 °F 47% 30.05 in 10.0 mi South 9.2 mph - N/A   Mostly Cloudy
3:35 PM 84.0 °F 84.4 °F 61.2 °F 46% 30.06 in 10.0 mi South 10.4 mph - N/A   Mostly Cloudy
3:55 PM 84.4 °F 84.6 °F 61.2 °F 45% 30.06 in 10.0 mi South 10.4 mph - N/A   Mostly Cloudy
4:15 PM 84.2 °F 85.0 °F 62.8 °F 48% 30.05 in 10.0 mi SSW 8.1 mph - N/A   Overcast
4:35 PM 85.1 °F 85.4 °F 61.5 °F 45% 30.05 in 10.0 mi SSW 8.1 mph 16.1 mph N/A   Scattered Clouds
4:55 PM 84.4 °F 84.8 °F 61.3 °F 46% 30.05 in 10.0 mi SSW 6.9 mph - N/A   Scattered Clouds
5:15 PM 84.6 °F 84.6 °F 60.6 °F 44% 30.05 in 10.0 mi South 8.1 mph - N/A   Mostly Cloudy
5:35 PM 84.0 °F 84.5 °F 61.7 °F 47% 30.05 in 10.0 mi South 8.1 mph - N/A   Scattered Clouds
5:55 PM 83.7 °F 83.9 °F 61.2 °F 46% 30.05 in 10.0 mi South 8.1 mph - N/A   Clear
6:15 PM 83.8 °F 84.5 °F 62.1 °F 48% 30.05 in 10.0 mi South 5.8 mph - N/A   Clear
6:35 PM 82.2 °F 82.9 °F 61.5 °F 49% 30.05 in 10.0 mi South 5.8 mph - N/A   Clear
6:55 PM 81.9 °F 83.1 °F 63.0 °F 53% 30.05 in 10.0 mi South 4.6 mph - N/A   Clear
7:15 PM 80.8 °F 82.5 °F 64.8 °F 58% 30.05 in 10.0 mi South 3.5 mph - N/A   Clear
7:35 PM 79.7 °F - 65.7 °F 62% 30.05 in 10.0 mi Calm Calm - N/A   Clear
7:55 PM 78.8 °F - 65.7 °F 64% 30.06 in 10.0 mi Calm Calm - N/A   Clear
8:15 PM 77.4 °F - 66.2 °F 68% 30.06 in 10.0 mi Calm Calm - N/A   Clear
8:35 PM 76.5 °F - 66.6 °F 71% 30.06 in 10.0 mi Calm Calm - N/A   Clear
8:55 PM 75.9 °F - 66.4 °F 72% 30.06 in 10.0 mi Calm Calm - N/A   Clear
9:15 PM 74.8 °F - 67.1 °F 77% 30.06 in 5.0 mi Calm Calm - N/A   Haze
9:35 PM 74.5 °F - 67.3 °F 78% 30.07 in 0.8 mi Calm Calm - N/A   Haze
9:55 PM 74.5 °F - 67.1 °F 78% 30.07 in 0.2 mi Calm Calm - N/A   Haze
10:15 PM 73.4 °F - 67.1 °F 81% 30.07 in 0.2 mi South 3.5 mph - N/A   Haze
10:35 PM 73.4 °F - 67.1 °F 81% 30.07 in 7.0 mi Calm Calm - N/A   Clear
10:55 PM 72.9 °F - 67.5 °F 83% 30.08 in 5.0 mi Calm Calm - N/A   Haze
11:15 PM 72.7 °F - 66.9 °F 82% 30.07 in 0.2 mi Calm Calm - N/A   Haze
11:35 PM 72.5 °F - 67.3 °F 84% 30.08 in 7.0 mi Calm Calm - N/A   Clear
11:55 PM 72.3 °F - 67.1 °F 84% 30.08 in 2.5 mi Calm Calm - N/A   Haze